星链-5849 (STARLINK-5849 )

导读 | 星芒AI

STARLINK-5849 是 SpaceX Starlink 项目中的一颗低轨通信卫星,属于第 5 批发射的 Starlink 卫星群。该卫星运行在约 550 公里的高度,旨在为全球用户提供高速互联网服务。它采用先进的相控阵天线和激光通信技术,提高数据传输效率和网络稳定性。STARLINK-5849 与其他 Starlink 卫星协同工作,构建全球覆盖的卫星互联网系统,尤其服务于偏远和网络基础设施薄弱的地区。

基本信息
目录编号:
55924
目录名称:
STARLINK-5849
国际标识:
2023-037L
轨道中心:
EARTH
卫星名称:
星链-5849
卫星全名:
星链-5849 (STARLINK-5849 )
卫星状态:
在轨 (已飞行963 天)
发射日期:
2023-03-17 UTC
国别 :
美国 (US)
星等 :
--
轨道信息
数据来源 国际轨道数据
星历时间: 2025-11-04T03:57:37+0800
11小时前
查看轨道信息
半长轴: 6950.193km
偏心率: 0.0002933
轨道倾角: 69.999°
近地点辐角 268.224°
升交点赤经 241.955°
平近点角 91.859°
近地点: 570.019km
远地点: 574.097km
周期: 96.107分钟
每日圈数: 14.983301
详细信息
固有亮度:
5
最大亮度:
2.5
卫星平台:
Starlink v1.5
覆盖范围:
全球
运营商:
太空探索技术公司
运营商所在国:
美国
制造商(研发单位):
太空探索技术公司
制造商所在国:
美国
使用方式:
暂无
卫星简介
星链(Starlink)计划是由太空探索技术公司(SpaceX)提出的一个巨型低轨卫星互联网星座项目,计划在2019年至2024年间在太空搭建由约1.2万颗卫星组成的“星链”网络,其中1584颗将部署在地球上空550千米处的近地轨道,并从2020年开始工作。该卫星仍在工作。
2D轨道图
3D轨道图
轨道高度分析图
轨道倾角分析图
轨道综合分析图
查看轨道综合分析图